Terminal Aerodrome Forecast
Issued by NWS

Home | Current Version | Previous Version | Text Only | Print | Product List | Glossary Off
Versions: 1 2 3 4 5 6 7 8 9 10 11 12 13 14 15 16 17 18 19 20 21 22 23 24

000
FTUS43 KUNR 300900 AAA
TAFGCC
TAF AMD
KGCC 300954Z 3010/0106 30011KT P6SM -SHRA OVC011
     FM301700 31018G28KT P6SM BKN035
     FM010000 33008KT P6SM BKN040=

USA.gov is the U.S. government's official web portal to all federal, state and local government web resources and services.